Flag for Canada Weather past 2 weeks in Rae-Edzo, Northwest Territories, Canada

Now
31 °F

Chilly.


Feels Like: 23 °F
Forecast: 22 / 33 °F
Wind: 8 mph from South

Location: Lac La Martre


UV Index: 0 (Low)

Visibility: N/A


Pressure: 29.87 "Hg

Humidity: 58%

Dew point: 18 °F

Location of Rae-EdzoLocation

Historic Weather in Rae-Edzo

°F

Rae-Edzo temperature yesterday

Maximum temperature yesterday: 43 °F (at 6:00 PM)
Minimum temperature yesterday: 18 °F (at 6:00 AM)
Average temperature yesterday: 30 °F

Past Weeks' High & Low Weather Summary

 TemperatureHumidityPressure
High43 °F (Apr 17, 6:00 PM)96% (Apr 4, 7:00 AM)30.53 "Hg (Apr 4, 7:00 AM)
Low-22 °F (Apr 13, 4:00 AM)24% (Apr 15, 4:00 PM)29.29 "Hg (Apr 8, 12:00 PM)
Average12 °F61%30.01 "Hg
* Reported Apr 3 8:00 AM — Apr 18 8:00 AM, Rae-Edzo, Weather by CustomWeather, © 2014

Note: Actual official high and low records may vary slightly from our data, if they occured in-between our weather recording intervals... More about our weather records

Advertising

Historic Weather Conditions — Data for Previous 24 hours

 ConditionsComfort  
Time TempWeatherWind HumidityBarometerVisibility
8:00 AM
Apr 18
26 °FChilly.8 mph68%29.88 "HgN/A
7:00 AM23 °FCold.9 mph75%29.87 "HgN/A
6:00 AM23 °FCold.8 mph75%29.88 "HgN/A
5:00 AM26 °FChilly.8 mph74%29.88 "HgN/A
4:00 AM25 °FCold.8 mph73%29.88 "HgN/A
3:00 AM26 °FChilly.8 mph69%29.89 "HgN/A
2:00 AM28 °FChilly.8 mph66%29.89 "HgN/A
1:00 AM29 °FChilly.9 mph62%29.89 "HgN/A
12:00 AM29 °FChilly.8 mph62%29.90 "HgN/A
11:00 PM
Apr 17
30 °FChilly.8 mph62%29.90 "HgN/A
10:00 PM32 °FChilly.8 mph52%29.90 "HgN/A
9:00 PM35 °FChilly.10 mph50%29.90 "HgN/A
8:00 PM39 °FChilly.14 mph33%29.90 "HgN/A
7:00 PM41 °FQuite cool.14 mph32%29.91 "HgN/A
6:00 PM43 °FQuite cool.12 mph30%29.92 "HgN/A
5:00 PM42 °FQuite cool.16 mph32%29.93 "HgN/A
4:00 PM42 °FQuite cool.14 mph34%29.94 "HgN/A
3:00 PM40 °FQuite cool.14 mph36%29.95 "HgN/A
2:00 PM38 °FChilly.15 mph36%29.96 "HgN/A
1:00 PM36 °FChilly.15 mph38%29.97 "HgN/A
12:00 PM31 °FChilly.14 mph41%29.98 "HgN/A
11:00 AM30 °FChilly.12 mph40%29.98 "HgN/A
10:00 AM27 °FChilly.12 mph41%29.99 "HgN/A
9:00 AM24 °FCold.12 mph49%29.99 "HgN/A
Weather by CustomWeather, © 2014

See weather overview